Overview Statistics Trail Chart Weather Telemetry Raw packets
 

This is the latest recevied weather packets stored in our database for station/object SV9TNF-51. If no packets are shown the sender has not sent any weather packets the latest 10 day(s).

<< 14 15 16 17 18 19 20 >>
Time Temp. Humidity Pressure Rain* Wind** Luminosity Snow
1788568949 25.56° C 57% 1011.9 hPa 0 mm 0.89 m/s, 130° - -
1788568648 25.56° C 57% 1011.9 hPa 0 mm 1.34 m/s, 106° - -
1788568348 25.56° C 56% 1011.9 hPa 0 mm 0 m/s - -
1788568048 25.56° C 55% 1011.9 hPa 0 mm 0.89 m/s, 137° - -
1788567748 25.56° C 55% 1011.9 hPa 0 mm 2.68 m/s, 146° - -
1788567448 25.56° C 56% 1011.9 hPa 0 mm 0 m/s - -
1788567149 25.56° C 55% 1011.9 hPa 0 mm 1.34 m/s, 123° - -
1788566848 25.56° C 55% 1011.9 hPa 0 mm 0.89 m/s, 141° - -
1788566548 25.56° C 54% 1011.9 hPa 0 mm 0 m/s - -
1788566248 25.56° C 54% 1012.2 hPa 0 mm 1.34 m/s, 87° - -
1788565948 25.56° C 53% 1012.2 hPa 0 mm 1.34 m/s, 134° - -
1788565674 25.56° C 53% 1012.2 hPa 0 mm 0.89 m/s, 124° - -
1788565347 25.56° C 53% 1012.2 hPa 0 mm 0 m/s - -
1788565047 25.56° C 52% 1012.2 hPa 0 mm 0 m/s - -
1788564747 25.56° C 52% 1012.5 hPa 0 mm 0.89 m/s, 149° - -
1788564447 25.56° C 52% 1012.5 hPa 0 mm 1.79 m/s, 154° - -
1788564147 25.56° C 51% 1012.5 hPa 0 mm 1.79 m/s, 116° - -
1788563847 25.56° C 51% 1012.5 hPa 0 mm 1.79 m/s, 111° - -
1788563547 25.56° C 51% 1012.5 hPa 0 mm 3.13 m/s, 220° - -
1788563247 25.56° C 51% 1012.5 hPa 0 mm 1.34 m/s, 149° - -
1788562947 26.11° C 52% 1012.5 hPa 0 mm 0 m/s - -
1788562647 26.11° C 53% 1012.5 hPa 0 mm 2.68 m/s, 135° - -
1788562347 26.11° C 51% 1012.5 hPa 0 mm 2.68 m/s, 86° - -
1788562046 25.56° C 49% 1013.2 hPa 0 mm 1.34 m/s, 134° - -
1788561746 26.11° C 48% 1013.2 hPa 0 mm 3.58 m/s, 53° - -

* Rain latest hour (hover to see other rain measurements)
** Current wind speed in m/s (hover to see current wind gust speed)